This is the latest recevied weather packets stored in our database for station/object CA3DPI. If no packets are shown the sender has not sent any weather packets the latest 10 day(s).
| Time | Temp. | Humidity | Pressure | Rain* | Wind** | Luminosity | Snow |
|---|---|---|---|---|---|---|---|
| 1777289104 | 7.22° C | 52% | 1021.8 hPa | - | - | - | - |
| 1777288504 | 7.22° C | 52% | 1021.7 hPa | - | - | - | - |
| 1777287904 | 7.22° C | 54% | 1021.7 hPa | - | - | - | - |
| 1777287303 | 6.67° C | 52% | 1021.6 hPa | - | - | - | - |
| 1777286708 | 7.22° C | 51% | 1021.7 hPa | - | - | - | - |
| 1777286108 | 7.78° C | 51% | 1021.6 hPa | - | - | - | - |
| 1777285508 | 8.33° C | 51% | 1021.5 hPa | - | - | - | - |
| 1777284907 | 8.33° C | 51% | 1021.7 hPa | - | - | - | - |
| 1777284307 | 8.33° C | 50% | 1021.7 hPa | - | - | - | - |
| 1777283707 | 8.33° C | 52% | 1021.7 hPa | - | - | - | - |
| 1777283107 | 8.33° C | 51% | 1021.7 hPa | - | - | - | - |
| 1777282507 | 8.33° C | 51% | 1021.6 hPa | - | - | - | - |
| 1777282005 | 8.33° C | 51% | 1021.6 hPa | - | - | - | - |
| 1777281907 | 8.33° C | 51% | 1021.6 hPa | - | - | - | - |
| 1777281307 | 8.33° C | 51% | 1021.5 hPa | - | - | - | - |
| 1777280706 | 8.33° C | 52% | 1021.5 hPa | - | - | - | - |
| 1777280106 | 8.33° C | 51% | 1021.2 hPa | - | - | - | - |
| 1777279506 | 8.89° C | 50% | 1021.2 hPa | - | - | - | - |
| 1777278906 | 9.44° C | 51% | 1021.2 hPa | - | - | - | - |
| 1777278306 | 9.44° C | 51% | 1021.3 hPa | - | - | - | - |
| 1777277705 | 9.44° C | 51% | 1021.4 hPa | - | - | - | - |
| 1777277105 | 9.44° C | 52% | 1021.3 hPa | - | - | - | - |
| 1777276505 | 9.44° C | 51% | 1021.3 hPa | - | - | - | - |
| 1777275905 | 8.89° C | 50% | 1021.3 hPa | - | - | - | - |
| 1777275305 | 9.44° C | 51% | 1021.4 hPa | - | - | - | - |
* Rain since midnight (hover to see other rain measurements)
** Current wind speed in m/s (hover to see current wind gust speed)